DW5260 Weather Reports


time (UTC)temp
C
wind
direction
speed
KPH
gust
KPH
rain 1hr
cm
rain 24hr
cm
rain mn
cm
humidity
%
barometer
mb
20260904123107 28 191 0.0 0.0 0.00 0.00 0.00 84 1015.4
20260904121531 -17 0.0 0.0 0.00 0.00 0.00 1015.3
20260904120002 -17 0.0 0.0 0.00 0.00 0.00 1015.1
20260904114529 -17 0.0 0.0 0.00 0.00 0.00 1015.0
20260904113004 -17 0.0 0.0 0.00 0.00 0.00 1014.8
20260904111521 -17 0.0 0.0 0.00 0.00 0.00 1014.7
20260904110029 -17 0.0 0.0 0.00 0.00 0.00 1014.5
20260904104512 -17 0.0 0.0 0.00 0.00 0.00 1014.4
20260904103044 -17 0.0 0.0 0.00 0.00 0.00 1014.3
20260904101544 -17 0.0 0.0 0.00 0.00 0.00 1014.3
20260904100056 -17 0.0 0.0 0.00 0.00 0.00 1014.2
20260904093018 -17 0.0 0.0 0.00 0.00 0.00 1013.9
20260904091546 -17 0.0 0.0 0.00 0.00 0.00 1013.8
20260904090053 -17 0.0 0.0 0.00 0.00 0.00 1013.7
20260904084558 -17 0.0 0.0 0.00 0.00 0.00 1013.7
20260904081554 27 153 0.0 0.0 0.00 0.00 0.00 87 1013.6
20260904080049 27 155 0.0 0.0 0.00 0.00 0.00 87 1013.5
20260904074557 27 225 0.0 0.0 0.00 0.00 0.00 87 1013.5
20260904073106 27 198 0.0 0.0 0.00 0.00 0.00 88 1013.6
20260904071502 27 160 0.0 0.0 0.00 0.00 0.00 88 1013.4
20260904070006 27 150 0.0 0.0 0.00 0.00 0.00 89 1013.6
20260904064605 27 141 0.0 0.0 0.00 0.00 0.00 89 1013.7
20260904063123 27 174 0.0 0.0 0.00 0.00 0.00 89 1013.9
20260904061559 27 162 0.0 0.0 0.00 0.00 0.00 88 1014.0
20260904060100 27 114 0.0 0.0 0.00 0.00 0.00 88 1014.2
20260904054610 27 142 0.0 0.0 0.00 0.00 0.00 87 1014.3
20260904053058 27 129 0.0 0.0 0.00 0.00 0.00 87 1014.5
20260904051607 27 124 0.0 0.0 0.00 0.00 0.00 87 1014.7
20260904050100 27 117 0.0 0.0 0.00 0.00 0.00 86 1014.7
20260904044606 27 134 0.0 0.0 0.00 0.00 0.00 86 1014.8
20260904043104 27 176 0.0 0.0 0.00 0.05 0.00 85 1014.8
20260904041503 27 171 0.0 0.0 0.00 0.05 0.00 85 1014.7
20260904040107 27 151 0.0 0.0 0.00 0.05 0.00 85 1014.7
20260904034558 27 175 0.0 0.0 0.00 0.05 0.00 85 1014.5
20260904033058 27 229 0.0 0.0 0.00 0.20 0.00 85 1014.6
20260904031554 27 172 0.0 0.0 0.00 0.20 0.00 84 1014.7
20260904030057 27 209 0.0 0.0 0.00 0.20 0.00 85 1014.8
20260904024557 27 143 0.0 0.0 0.00 0.20 0.00 86 1014.8
20260904023057 27 108 0.0 0.0 0.00 0.23 0.00 87 1014.7
20260904021554 27 106 0.0 0.0 0.00 0.23 0.00 86 1014.8
20260904020051 27 167 0.0 0.0 0.00 0.23 0.00 86 1014.8
20260904014556 27 149 0.0 0.0 0.00 0.23 0.00 86 1014.8
20260904013048 27 97 0.0 0.0 0.00 0.23 0.00 86 1014.6
20260904011548 27 91 0.0 0.0 0.00 0.23 0.00 86 1014.3
20260904010052 27 136 0.0 0.0 0.00 0.23 0.00 86 1014.5
20260904004556 27 146 0.0 0.0 0.00 0.23 0.00 87 1014.4
20260904003104 27 141 0.0 0.0 0.00 0.23 0.00 86 1014.5
20260904001559 27 148 0.0 0.0 0.00 0.23 0.00 86 1014.5
20260904000123 27 201 0.0 0.0 0.00 0.23 0.00 86 1014.5
20260903234604 27 157 0.0 0.0 0.00 0.23 0.00 85 1014.3
20260903233108 27 118 0.0 0.0 0.00 0.23 0.00 86 1014.2
20260903231600 27 148 0.0 0.0 0.00 0.23 0.00 85 1014.0
20260903224627 27 165 0.0 0.0 0.00 0.23 0.00 84 1014.0
20260903223010 27 138 0.0 0.0 0.00 0.23 0.00 84 1013.8
20260903221508 28 131 0.0 0.0 0.00 0.23 0.00 83 1013.7
20260903220008 28 146 0.0 0.0 0.00 0.23 0.00 84 1013.4
20260903214506 28 192 0.0 0.0 0.00 0.23 0.00 84 1013.7
20260903213006 28 115 0.0 0.0 0.00 0.23 0.00 84 1014.0
20260903211506 28 147 0.0 0.0 0.00 0.23 0.00 83 1013.4
20260903210004 28 125 0.0 0.0 0.00 0.23 0.00 84 1012.8
20260903204606 28 134 0.0 0.0 0.00 0.23 0.00 84 1012.9
20260903203115 28 84 0.0 0.0 0.00 0.23 0.00 84 1013.2
20260903201503 28 101 0.0 0.0 0.00 0.23 0.00 84 1013.5
20260903200006 28 132 0.0 0.0 0.00 0.23 0.00 84 1013.6
20260903194502 28 113 0.0 0.0 0.00 0.23 0.00 85 1013.7
20260903193104 28 147 0.0 0.0 0.00 0.23 0.00 85 1013.9
20260903191502 28 91 0.0 0.0 0.00 0.23 0.00 84 1014.0
20260903190004 28 86 0.0 0.0 0.00 0.23 0.00 84 1014.1
20260903184506 28 49 0.0 0.0 0.00 0.23 0.00 84 1014.3
20260903183004 28 95 0.0 0.0 0.00 0.23 0.00 85 1014.6
20260903181501 28 120 0.0 0.0 0.00 0.23 0.00 85 1014.6
20260903180008 28 91 0.0 0.0 0.00 0.23 0.00 84 1014.7
20260903174510 28 85 0.0 0.0 0.00 0.23 0.00 85 1014.6
20260903173058 27 67 0.0 0.0 0.00 0.23 0.00 85 1014.7
20260903171559 27 119 0.0 0.0 0.00 0.23 0.00 85 1014.7
20260903170107 27 72 0.0 0.0 0.00 0.23 0.00 85 1014.8
20260903164502 27 94 0.0 0.0 0.00 0.23 0.00 84 1014.9
20260903163006 28 39 0.0 0.0 0.00 0.23 0.00 84 1015.2
20260903161502 27 71 0.0 0.0 0.00 0.23 0.00 85 1015.4
20260903160129 27 84 0.0 0.0 0.00 0.23 0.00 86 1015.6
20260903154611 27 60 0.0 0.0 0.00 0.23 0.00 86 1015.8
20260903153058 27 110 0.0 0.0 0.00 0.23 0.00 87 1015.7
20260903151600 27 89 0.0 0.0 0.00 0.23 0.00 87 1015.7
20260903150111 27 85 0.0 0.0 0.00 0.23 0.00 87 1015.6
20260903144504 27 48 0.0 0.0 0.00 0.23 0.00 86 1015.5
20260903143111 27 81 0.0 0.0 0.00 0.23 0.00 85 1015.5
20260903141603 27 226 0.0 0.0 0.00 0.23 0.00 85 1015.3
20260903140057 27 225 0.0 0.0 0.00 0.23 0.00 85 1015.1
20260903134559 27 225 0.0 0.0 0.00 0.23 0.00 86 1014.9
20260903133052 27 226 0.0 0.0 0.00 0.23 0.00 86 1014.9
20260903131552 27 226 0.0 0.0 0.00 0.23 0.00 86 1014.9
20260903130052 27 226 0.0 0.0 0.00 0.23 0.00 87 1014.6
20260903124553 27 229 0.0 0.0 0.00 0.23 0.00 88 1014.7